Portada
METAR-TAF:

METAR-TAF

Aeroports :

Warrensburg, Missouri, Estats Units d'Amèrica

latitud: 38-47-03N, longitud: 093-48-10W, altitud: 243 m

Observació

L'informe es va fer fa 4 hores i 5 minuts, a les 14:55 UTC
Vent 11 kt del Sud/Sud-Oest amb ràfegues de 16 kt
Temperatura 26°C
Humitat 70%
Pressió 1013 hPa
Visibilitat: 16.1 km

METAR: KRCM 031455Z AUTO 21011G16KT 10SM 26/20 A2991 RMK AO2

Hora: 14:00 (19:00 UTC)


TAF: manca

Observacions i pronòstics meteorològics de més de 4000 aeroports (METAR i TAF).

Les estacions disponibles són els punts grocs i vermells al mapa.

Posi el ratolí al punt desitjat per veure el nom de l'estació.

Feu clic per veure les observacions i els pronòstics meteorològics.

Per canviar el mapa: feu clic els botons verds amb una creu de color negre per apropar; al botó verd amb un guió per allunyar la imatge; o en les fletxes verdes per a mapes adjacents.


METAR-TAF: